Theta_e
324 335 344 344 345 345 347 346 344 343 341 341 341 341 341 340 340 339 339 338 337 337 336 337 336 339 342 340 337 338 338 339 339 339 340 341 340 339 337 336 335 333 336
327 335 344 347 346 345 345 345 345 343 343 343 343 344 344 344 343 343 341 340 340 338 338 338 337 336 338 342 340 340 338 338 338 339 339 339 340 340 339 338 336 332 337
327 333 341 346 346 345 344 344 344 343 343 344 344 343 343 343 343 344 343 342 342 342 341 341 340 338 336 340 341 341 337 339 340 338 338 332 330 338 339 340 339 337 338
324 328 334 341 343 343 343 343 343 342 342 343 343 340 340 338 338 340 341 339 341 342 342 343 342 342 340 338 339 340 339 339 339 337 330 330 331 336 336 338 340 339 338
319 324 331 338 338 338 338 338 338 338 338 336 336 335 334 332 333 333 334 334 334 336 338 338 338 338 339 340 340 340 340 341 338 335 329 327 326 330 335 337 338 340 339
315 320 329 334 334 334 334 333 331 330 329 327 326 325 324 323 322 322 324 324 324 325 326 327 328 329 332 334 336 338 338 338 338 330 328 328 329 334 336 336 340 341 339
311 316 321 329 329 328 328 327 326 324 323 322 320 320 319 319 318 319 319 319 320 321 321 321 321 322 322 323 323 325 328 327 325 328 327 326 326 335 338 336 337 341 339
309 311 315 322 325 324 323 322 321 320 319 318 317 317 316 316 316 315 315 317 318 318 318 318 319 319 319 319 319 321 321 321 320 322 326 327 330 336 338 338 337 339 340
304 306 308 311 316 320 320 320 318 317 316 315 315 315 314 314 313 313 313 315 315 315 316 317 317 316 316 316 315 315 315 316 312 318 322 327 332 336 339 339 339 338 339
299 300 302 305 307 307 309 316 316 315 314 313 313 313 312 311 311 311 312 313 312 313 314 314 314 314 314 312 312 312 312 309 304 307 310 316 324 331 335 337 338 338 338
297 297 299 301 300 300 301 307 313 315 315 314 311 311 305 301 302 302 309 311 311 311 312 312 312 312 310 307 308 309 308 301 300 303 305 311 315 319 326 331 335 336 337
294 295 297 298 299 297 301 301 299 302 301 301 300 300 300 300 302 302 303 307 307 308 309 310 310 308 304 299 299 303 299 299 299 300 302 310 313 316 319 322 327 331 334
293 294 295 296 297 296 297 297 297 298 297 299 298 299 299 298 297 297 296 296 297 301 298 300 299 298 298 298 298 298 298 298 298 299 302 309 312 314 317 318 319 322 324
292 294 295 294 294 294 295 296 296 297 295 297 296 298 297 296 295 295 295 295 295 296 296 296 296 297 297 298 298 298 298 297 298 299 300 306 309 312 315 317 319 320 321
291 293 294 293 293 294 294 295 294 295 294 296 295 298 297 296 295 295 295 295 295 296 296 295 296 296 296 297 297 297 297 298 298 299 299 304 307 310 313 316 317 319 320
293 293 293 293 293 294 293 293 294 293 294 295 295 296 297 296 295 295 294 295 294 295 295 295 295 295 295 296 296 297 297 297 297 298 299 299 305 307 309 312 314 316 318
294 294 293 293 293 294 293 293 293 294 295 293 294 296 298 298 296 295 294 294 294 295 295 295 295 294 294 295 294 295 296 296 297 297 297 298 299 303 305 309 311 313 315
293 293 294 297 294 293 293 292 293 294 293 293 294 295 297 298 296 294 294 293 294 294 294 293 293 292 292 292 292 292 293 294 294 295 296 296 297 298 301 305 308 310 311
294 294 293 294 294 293 293 293 293 293 293 293 293 294 296 298 297 294 294 293 294 294 293 292 292 291 290 290 291 292 292 292 292 295 294 295 296 297 298 302 304 305 306
294 295 295 295 294 293 292 291 292 292 292 293 293 294 296 296 296 294 293 293 294 292 291 291 291 291 290 289 291 291 290 291 291 291 291 295 295 296 296 297 297 297 301
294 294 295 294 293 293 290 289 290 290 291 292 293 295 296 296 296 294 293 293 293 291 291 291 290 289 288 289 287 287 288 289 290 290 291 291 292 293 293 294 294 295 295
293 294 295 295 293 294 293 291 292 291 291 292 293 295 295 296 295 294 293 292 292 291 290 289 289 287 288 288 285 284 283 285 289 291 290 290 290 291 292 293 292 293 293
293 294 294 294 294 294 294 293 291 291 291 291 292 293 295 295 295 295 293 292 291 290 289 288 288 287 285 286 287 284 282 281 285 288 289 290 289 289 290 290 291 291 292
293 294 294 294 293 294 294 293 291 290 289 290 292 293 294 295 294 294 293 292 291 290 288 288 289 287 286 284 285 289 287 286 281 282 286 287 290 288 289 289 289 290 290
293 293 294 294 293 294 294 294 293 289 290 291 291 292 292 293 293 293 292 291 290 289 288 287 287 286 286 285 284 284 284 285 288 285 282 285 288 289 289 288 288 288 289
292 292 293 293 293 293 294 294 293 291 290 290 290 290 290 291 291 291 292 290 289 288 287 287 287 286 285 285 285 285 284 284 285 285 284 284 284 286 286 287 286 286 287
Wind_Speed
4 4 5 10 9 8 10 9 8 6 4 3 2 3 3 3 2 2 1 1 1 2 3 4 5 6 6 4 2 1 3 3 3 3 5 5 4 4 3 1 3 2 5
7 4 6 12 10 9 9 7 7 5 4 2 1 3 7 7 6 5 4 3 3 3 4 4 4 5 6 6 2 3 3 2 2 3 3 5 6 6 6 4 4 5 8
6 4 5 11 11 11 10 9 8 6 5 6 7 7 7 8 9 10 5 4 5 5 5 5 5 5 4 5 5 5 3 2 2 2 3 1 3 6 9 10 8 9 10
8 5 5 10 11 10 10 10 10 8 8 8 10 9 9 6 5 7 9 7 7 7 5 7 7 8 6 5 5 4 5 4 4 4 2 3 4 8 11 12 13 12 11
7 6 6 9 9 9 9 10 10 10 8 8 7 8 5 7 7 7 8 9 8 8 8 9 9 9 12 12 10 8 8 8 7 6 4 4 4 7 12 13 13 10 11
7 6 8 12 12 11 11 10 10 10 9 8 7 7 6 7 6 7 8 8 8 9 9 8 10 10 9 11 12 12 12 12 11 5 5 6 6 11 14 14 14 12 11
7 6 6 11 12 12 11 11 10 9 8 8 7 7 7 7 8 8 9 9 9 9 9 9 8 9 9 10 10 11 13 14 8 6 5 5 6 15 17 17 16 15 12
9 6 6 8 10 12 11 10 9 9 9 8 8 8 7 7 8 8 8 8 8 8 8 8 9 9 9 11 11 12 12 12 7 6 6 5 10 16 19 19 19 17 15
7 7 6 6 7 10 10 9 9 9 9 9 8 8 7 8 8 9 8 7 7 8 8 8 10 10 11 11 11 12 12 12 6 5 7 6 10 17 20 21 20 20 18
7 6 6 6 6 6 5 9 9 9 8 8 8 8 8 8 8 9 7 8 8 8 8 9 10 10 11 12 12 12 12 10 6 5 4 5 16 17 19 21 22 22 21
5 7 7 6 6 6 6 5 8 9 7 7 6 7 6 3 4 5 6 7 8 8 8 9 9 10 11 10 11 11 11 3 5 4 3 11 15 17 18 20 20 21 22
9 7 7 7 7 6 4 5 5 4 3 3 4 4 3 4 3 4 5 7 8 8 9 9 10 11 9 4 4 9 3 5 4 4 3 13 15 17 18 19 21 22 23
8 6 8 8 7 7 5 4 2 2 2 3 4 3 3 3 3 3 2 3 3 6 3 5 5 4 6 4 4 4 5 5 3 4 7 15 16 18 18 19 20 22 23
9 11 9 8 7 7 5 4 4 4 3 3 3 5 3 2 2 2 2 3 3 3 4 4 3 4 5 5 6 6 6 4 4 4 6 15 17 18 19 19 21 22 23
10 9 9 8 8 6 6 4 4 4 4 4 3 4 3 3 2 1 2 2 2 3 4 4 4 4 5 5 6 6 7 7 7 5 4 14 18 19 20 21 21 22 23
12 12 9 9 8 7 6 6 5 4 4 4 3 4 4 4 3 2 2 2 3 3 3 3 4 4 4 4 6 6 6 7 8 7 6 7 17 18 19 21 21 22 22
12 12 12 11 8 8 8 6 5 5 4 4 4 5 5 3 4 3 2 2 2 2 3 3 3 3 4 4 5 7 6 7 7 7 7 5 7 13 16 18 20 22 22
11 13 12 11 10 9 8 6 5 5 5 4 4 3 5 5 5 4 2 2 2 2 1 2 2 3 3 4 6 6 6 7 8 7 6 5 4 5 8 15 19 21 22
16 14 13 11 12 10 7 5 5 6 5 4 3 4 5 5 4 4 3 1 2 1 1 2 2 2 3 4 7 7 7 7 7 6 6 5 6 5 4 11 18 19 19
14 14 14 11 10 9 6 4 3 3 3 3 4 4 6 4 5 4 3 2 2 2 2 3 2 1 2 4 7 8 8 6 5 5 5 5 5 5 5 6 5 5 16
14 15 15 15 11 10 4 5 3 4 3 3 4 6 6 5 6 4 4 2 2 2 1 2 2 4 2 5 4 4 4 6 5 4 4 5 6 5 5 5 4 5 8
17 17 17 16 15 12 9 4 4 5 3 2 3 5 6 6 6 5 5 3 3 2 2 3 4 2 2 4 3 2 6 6 3 11 7 4 6 3 4 6 9 11 10
20 20 17 17 16 14 11 6 4 4 3 2 3 3 5 6 6 5 5 5 4 2 1 2 1 3 2 2 3 0 5 4 11 1 7 3 0 3 5 5 9 12 11
19 17 18 17 16 14 14 11 8 6 5 4 4 3 5 6 6 6 6 5 4 3 3 2 3 2 2 1 2 1 2 3 4 12 4 0 11 4 9 6 9 11 12
18 18 17 17 16 14 16 15 10 6 4 3 3 6 5 5 5 6 6 5 5 3 3 3 3 3 2 2 3 2 2 4 8 7 16 14 11 8 8 11 12 11 11
13 15 16 17 17 15 16 14 15 12 8 5 5 5 4 4 4 5 6 5 5 4 4 3 3 4 4 4 3 3 4 3 4 7 11 18 20 16 12 10 10 10 10
Wind_Direction
209 198 213 172 153 137 158 159 153 154 163 188 230 255 263 268 273 261 261 280 318 336 341 347 352 1 18 356 339 325 0 4 5 341 320 303 252 236 222 222 267 254 242
140 177 176 147 142 135 128 130 141 147 190 207 296 279 263 258 252 255 255 269 289 308 327 332 337 346 358 353 309 297 313 357 18 357 336 309 317 314 306 266 260 258 260
131 148 92 122 132 136 128 129 133 131 120 101 81 56 56 49 51 45 54 19 306 299 302 307 313 328 342 345 322 291 277 275 291 305 315 306 281 286 293 286 250 250 262
134 123 106 117 122 121 120 117 114 99 87 73 82 74 60 51 51 52 52 45 33 26 359 349 356 342 329 324 329 303 273 264 256 259 277 278 281 282 282 278 283 256 249
123 122 117 119 134 126 108 106 101 97 100 90 84 73 88 72 67 66 55 42 26 8 7 3 353 359 4 358 340 325 303 286 282 281 273 272 271 280 285 280 279 272 244
129 126 127 137 135 130 129 122 118 118 117 114 105 101 84 77 63 51 52 43 33 25 18 13 12 9 359 358 348 345 343 345 326 289 276 273 278 280 286 285 282 291 231
133 134 134 139 139 137 135 135 133 132 126 117 114 106 94 88 66 56 41 31 32 28 21 14 9 10 6 2 356 347 340 345 344 322 283 274 275 283 286 285 283 286 265
143 143 138 134 141 143 144 145 142 133 122 120 115 107 96 84 65 71 50 39 38 32 20 15 18 18 10 4 3 5 1 356 340 320 307 288 276 284 284 285 283 282 282
135 137 136 142 143 143 145 145 141 135 124 114 109 105 98 89 68 65 52 48 39 24 26 22 21 11 10 11 5 360 357 352 353 333 324 313 295 293 286 282 277 278 279
148 145 150 155 143 138 139 141 142 134 135 117 112 106 96 81 73 65 46 44 33 24 21 21 16 15 10 4 1 358 352 353 345 328 324 313 309 303 295 292 286 280 279
169 163 161 164 163 158 155 163 151 149 141 121 101 102 91 96 77 65 48 41 31 24 17 14 16 12 4 353 352 349 346 334 328 311 302 307 309 300 299 302 294 288 282
186 185 175 175 176 170 164 157 155 157 150 141 121 114 110 101 84 72 42 39 24 24 17 15 12 5 354 347 338 345 328 323 308 299 288 305 307 304 299 294 295 298 298
181 173 185 180 179 172 177 164 154 151 146 151 141 137 120 89 70 67 47 27 13 26 16 15 3 1 351 339 338 322 318 318 303 296 297 304 306 305 302 299 295 290 289
178 188 185 181 175 179 162 165 167 162 161 164 179 162 143 119 93 75 65 27 21 5 10 10 354 345 346 333 325 325 306 305 290 295 290 300 303 305 303 300 297 294 293
190 190 194 175 178 173 165 161 168 178 169 176 177 180 147 138 126 98 66 55 21 10 7 355 352 352 344 338 322 316 311 310 299 296 288 292 301 304 306 305 302 300 297
191 192 186 187 179 162 170 170 179 169 173 170 180 191 176 155 140 110 79 46 37 12 358 344 344 350 335 328 319 312 304 292 288 290 287 293 299 305 309 309 310 307 303
197 187 186 183 174 171 178 173 174 172 167 175 187 188 178 163 150 134 104 61 37 9 354 355 349 339 348 322 311 304 297 287 287 288 287 287 289 296 308 312 312 311 309
183 187 186 184 179 181 174 171 173 170 168 188 177 181 181 179 160 136 109 60 38 24 14 338 355 339 353 326 319 304 300 288 287 285 279 275 280 290 299 306 311 312 312
189 185 181 179 176 180 175 162 174 167 168 185 170 182 183 175 158 125 110 120 89 44 12 348 352 33 329 328 315 309 289 286 289 292 283 286 279 283 293 305 310 309 313
190 189 183 176 176 169 150 136 136 145 176 173 184 193 177 173 160 136 120 140 96 68 1 9 359 348 311 318 307 299 289 278 275 271 282 290 289 288 290 297 299 306 312
187 183 183 175 174 162 147 149 150 176 173 197 187 189 181 175 166 152 142 150 113 89 4 13 1 25 353 327 332 296 303 281 288 280 264 261 274 281 307 312 308 310 306
185 187 184 186 173 178 169 157 153 149 184 175 167 180 187 179 175 163 164 157 134 150 56 44 44 4 9 16 5 292 334 326 342 291 279 254 253 295 317 300 303 305 308
189 188 184 183 179 175 168 133 95 86 77 116 178 183 194 181 181 165 176 155 155 164 136 106 85 60 10 338 29 94 339 316 324 287 287 280 157 327 310 307 299 295 296
194 184 185 178 175 177 166 169 160 168 158 196 173 163 173 182 181 175 175 162 162 169 168 160 147 148 141 281 354 221 206 240 331 319 318 185 294 319 305 301 298 295 292
183 180 179 177 175 173 178 181 177 162 153 138 140 154 170 187 186 178 170 164 169 174 182 179 169 181 185 191 181 237 251 235 236 257 298 303 294 305 316 312 301 296 294
179 176 177 176 181 176 178 183 185 180 160 148 163 169 182 182 185 184 171 165 171 177 190 197 197 204 212 219 213 215 215 250 273 269 282 293 297 312 313 295 292 287 281